Weather History for Superior, WI

Change the Weather History Date:

Wednesday, October 10, 2012

  Actual Average Record
Temperature  
Mean Temperature 38 °F -  
Max Temperature 48 °F 54 °F 84 °F (1955)
Min Temperature 28 °F 36 °F 18 °F (1964)
Degree Days  
Heating Degree Days 27    
Moisture  
Dew Point 27 °F    
Average Humidity 66    
Maximum Humidity 100    
Minimum Humidity 34    
Precipitation  
Precipitation 0.06 in - - ()
Sea Level Pressure  
Sea Level Pressure 29.95 in    
Wind  
Wind Speed 6 mph (West)    
Max Wind Speed 15 mph    
Max Gust Speed 21 mph    
Visibility 10 miles    
Events Rain , Snow    
Averages and records for this station are not official NWS values.
T = Trace of Precipitation, MM = Missing Value Source: NWS Daily Summary

Daily Weather History Graph

Daily Weather History Graph

Search for Another Location

Airport:

Trip Planner

Search our weather history database for the weather conditions in past years. The results will help you decide how hot, cold, wet, or windy it might be!

Date:

Astronomy

Oct. 10, 2012 Rise Set
Actual Time 7:19 AM CDT 6:29 PM CDT
Civil Twilight 6:49 AM CDT 7:00 PM CDT
Nautical Twilight 6:14 AM CDT 7:35 PM CDT
Astronomical Twilight 5:39 AM CDT 8:10 PM CDT
Moon 1:38 AM CDT (10/10) 3:48 PM CDT (10/10)
Length of Visible Light 12h 10m
Length of Day
11h 09m
Waning Crescent, 27% of the Moon is Illuminated
Oct 10
Waning Crescent
Oct 15
New
Oct 21
First Quarter
Oct 29
Full
Nov 6
Last Quarter

Hourly Weather History & Observations

Time (CDT) Temp. Windchill Dew Point Humidity Pressure Visibility Wind Dir Wind Speed Gust Speed Precip Events Conditions
12:15 AM 33.8 °F 28.6 °F 28.4 °F 81% 29.89 in 10.0 mi West 5.8 mph - N/A   Mostly Cloudy
12:35 AM 33.8 °F 29.6 °F 28.4 °F 81% 29.90 in 10.0 mi WSW 4.6 mph - N/A   Mostly Cloudy
12:55 AM 32.0 °F 28.7 °F 26.6 °F 80% 29.90 in 10.0 mi WSW 3.5 mph - N/A   Overcast
1:15 AM 32.0 °F 26.4 °F 28.4 °F 87% 29.90 in 10.0 mi WSW 5.8 mph - N/A   Mostly Cloudy
1:35 AM 33.8 °F 29.6 °F 28.4 °F 81% 29.91 in 10.0 mi WSW 4.6 mph - N/A   Overcast
1:55 AM 32.0 °F 27.5 °F 28.4 °F 87% 29.91 in 10.0 mi West 4.6 mph - N/A   Mostly Cloudy
2:15 AM 30.2 °F 24.3 °F 26.6 °F 86% 29.91 in 10.0 mi WSW 5.8 mph - N/A   Mostly Cloudy
2:35 AM 30.2 °F 24.3 °F 26.6 °F 86% 29.91 in 10.0 mi WSW 5.8 mph - N/A   Scattered Clouds
2:55 AM 30.2 °F 25.4 °F 26.6 °F 86% 29.91 in 10.0 mi West 4.6 mph - N/A   Scattered Clouds
3:15 AM 32.0 °F 25.6 °F 28.4 °F 87% 29.92 in 10.0 mi WNW 6.9 mph - N/A   Mostly Cloudy
3:35 AM 33.8 °F 27.7 °F 30.2 °F 87% 29.91 in 4.0 mi West 6.9 mph - N/A Snow Light Snow
3:55 AM 32.0 °F 26.4 °F 30.2 °F 93% 29.92 in 10.0 mi WSW 5.8 mph - N/A   Overcast
4:15 AM 30.2 °F 24.3 °F 30.2 °F 100% 29.92 in 10.0 mi SW 5.8 mph - N/A   Mostly Cloudy
4:35 AM 32.0 °F 26.4 °F 28.4 °F 87% 29.93 in 10.0 mi SW 5.8 mph - N/A   Overcast
4:55 AM 32.0 °F 26.4 °F 28.4 °F 87% 29.93 in 10.0 mi SW 5.8 mph - N/A   Overcast
5:15 AM 30.2 °F 24.3 °F 28.4 °F 93% 29.94 in 10.0 mi SW 5.8 mph - N/A   Overcast
5:35 AM 30.2 °F 25.4 °F 28.4 °F 93% 29.94 in 10.0 mi SW 4.6 mph - N/A   Mostly Cloudy
5:55 AM 30.2 °F 25.4 °F 26.6 °F 86% 29.94 in 10.0 mi SW 4.6 mph - N/A   Mostly Cloudy
6:15 AM 28.4 °F 23.3 °F 26.6 °F 93% 29.95 in 10.0 mi SW 4.6 mph - N/A   Mostly Cloudy
6:35 AM 30.2 °F 25.4 °F 26.6 °F 86% 29.96 in 10.0 mi SSW 4.6 mph - N/A   Overcast
6:55 AM 28.4 °F 24.6 °F 26.6 °F 93% 29.96 in 10.0 mi SW 3.5 mph - N/A   Scattered Clouds
7:15 AM 28.4 °F 24.6 °F 26.6 °F 93% 29.97 in 10.0 mi WSW 3.5 mph - N/A   Clear
7:55 AM 30.2 °F 23.4 °F 28.4 °F 93% 29.97 in 10.0 mi WSW 6.9 mph - N/A   Scattered Clouds
8:35 AM 33.8 °F 27.7 °F 30.2 °F 87% 29.98 in 10.0 mi West 6.9 mph - N/A   Clear
8:55 AM 37.4 °F 33.8 °F 30.2 °F 75% 29.99 in 10.0 mi West 4.6 mph - N/A   Scattered Clouds
9:15 AM 37.4 °F 33.8 °F 30.2 °F 75% 29.99 in 10.0 mi West 4.6 mph - N/A   Scattered Clouds
9:35 AM 37.4 °F 32.1 °F - N/A% 30.00 in - West 6.9 mph - N/A   Unknown
9:55 AM 37.4 °F 30.3 °F 30.2 °F 75% 30.00 in 10.0 mi West 10.4 mph - N/A   Overcast
10:15 AM 39.2 °F 35.0 °F 30.2 °F 70% 30.00 in 10.0 mi West 5.8 mph - N/A   Overcast
10:35 AM 41.0 °F 36.4 °F 30.2 °F 65% 30.00 in 10.0 mi WNW 6.9 mph - N/A   Mostly Cloudy
10:55 AM 42.8 °F 38.0 °F 28.4 °F 57% 30.01 in 10.0 mi WNW 8.1 mph - N/A   Scattered Clouds
11:15 AM 41.0 °F 35.2 °F 28.4 °F 61% 30.01 in 10.0 mi NW 9.2 mph - N/A   Scattered Clouds
11:55 AM 44.6 °F 40.2 °F 26.6 °F 49% 30.01 in 10.0 mi NNW 8.1 mph - N/A   Mostly Cloudy
12:15 PM 44.6 °F 39.7 °F 26.6 °F 49% 30.00 in 10.0 mi West 9.2 mph - N/A   Overcast
12:35 PM 44.6 °F 39.7 °F 24.8 °F 46% 30.00 in 10.0 mi West 9.2 mph - N/A   Mostly Cloudy
12:55 PM 42.8 °F 39.3 °F 24.8 °F 49% 29.99 in 10.0 mi West 5.8 mph - N/A   Mostly Cloudy
1:15 PM 44.6 °F 41.4 °F 24.8 °F 46% 29.98 in 10.0 mi West 5.8 mph - N/A   Mostly Cloudy
1:35 PM 44.6 °F 40.7 °F 23.0 °F 43% 29.98 in 10.0 mi West 6.9 mph - N/A   Scattered Clouds
1:55 PM 46.4 °F 41.5 °F 21.2 °F 37% 29.97 in 10.0 mi West 10.4 mph - N/A   Mostly Cloudy
2:15 PM 46.4 °F 40.7 °F 21.2 °F 37% 29.97 in 10.0 mi West 12.7 mph - N/A   Mostly Cloudy
2:35 PM 48.2 °F - 21.2 °F 34% 29.96 in 10.0 mi West 11.5 mph 18.4 mph N/A   Mostly Cloudy
2:55 PM 48.2 °F - 21.2 °F 34% 29.97 in 10.0 mi WNW 13.8 mph 20.7 mph N/A   Mostly Cloudy
3:15 PM 46.4 °F 40.7 °F 21.2 °F 37% 29.97 in 10.0 mi West 12.7 mph 17.3 mph N/A   Mostly Cloudy
3:35 PM 46.4 °F 41.5 °F 21.2 °F 37% 29.96 in 10.0 mi West 10.4 mph - N/A   Overcast
3:55 PM 48.2 °F - 21.2 °F 34% 29.95 in 10.0 mi West 11.5 mph - N/A   Overcast
4:15 PM 46.4 °F 40.7 °F 21.2 °F 37% 29.95 in 10.0 mi West 12.7 mph 18.4 mph N/A   Mostly Cloudy
4:35 PM 48.2 °F - 23.0 °F 37% 29.94 in 10.0 mi WSW 10.4 mph - N/A   Scattered Clouds
4:55 PM 46.4 °F 40.7 °F 23.0 °F 40% 29.94 in 10.0 mi WSW 12.7 mph 16.1 mph N/A   Scattered Clouds
5:15 PM 46.4 °F 42.4 °F 21.2 °F 37% 29.94 in 10.0 mi WSW 8.1 mph - N/A   Scattered Clouds
5:35 PM 46.4 °F 43.5 °F 21.2 °F 37% 29.94 in 10.0 mi SW 5.8 mph - N/A   Clear
5:55 PM 46.4 °F 43.5 °F 23.0 °F 40% 29.94 in 10.0 mi WSW 5.8 mph - N/A   Clear
6:15 PM 46.4 °F 45.2 °F 23.0 °F 40% 29.93 in 10.0 mi SW 3.5 mph - N/A   Clear
6:35 PM 44.6 °F 42.2 °F 23.0 °F 43% 29.93 in 10.0 mi SW 4.6 mph - N/A   Clear
6:55 PM 44.6 °F 43.1 °F 24.8 °F 46% 29.93 in 10.0 mi WSW 3.5 mph - N/A   Clear
7:15 PM 42.8 °F - 24.8 °F 49% 29.93 in 10.0 mi Calm Calm - N/A   Mostly Cloudy
7:35 PM 42.8 °F - 26.6 °F 53% 29.93 in 10.0 mi Calm Calm - N/A   Mostly Cloudy
7:55 PM 44.6 °F 43.1 °F 24.8 °F 46% 29.93 in 10.0 mi SW 3.5 mph - N/A   Overcast
8:15 PM 44.6 °F 39.2 °F 24.8 °F 46% 29.94 in 10.0 mi WSW 10.4 mph - N/A   Overcast
8:35 PM 44.6 °F 39.7 °F 26.6 °F 49% 29.94 in 10.0 mi West 9.2 mph - N/A   Mostly Cloudy
8:55 PM 44.6 °F 42.2 °F 26.6 °F 49% 29.94 in 10.0 mi WSW 4.6 mph - N/A   Mostly Cloudy
9:15 PM 44.6 °F 39.7 °F 26.6 °F 49% 29.94 in 10.0 mi West 9.2 mph - N/A   Mostly Cloudy
9:35 PM 44.6 °F 37.8 °F 28.4 °F 53% 29.94 in 10.0 mi WNW 15.0 mph 19.6 mph N/A   Mostly Cloudy
9:55 PM 41.0 °F 35.2 °F 32.0 °F 70% 29.94 in 10.0 mi WNW 9.2 mph - N/A Rain Rain
10:15 PM 39.2 °F 34.2 °F 33.8 °F 81% 29.95 in 10.0 mi West 6.9 mph - N/A   Drizzle
10:35 PM 39.2 °F 34.2 °F 33.8 °F 81% 29.94 in 10.0 mi WSW 6.9 mph - N/A   Drizzle
10:55 PM 37.4 °F 32.8 °F 35.6 °F 93% 29.94 in 5.0 mi WSW 5.8 mph - N/A Rain Rain
11:15 PM 37.4 °F 33.8 °F 35.6 °F 93% 29.94 in 7.0 mi West 4.6 mph - 0.02 in Rain Light Rain
11:35 PM 37.4 °F 33.8 °F 35.6 °F 93% 29.94 in 5.0 mi West 4.6 mph - 0.04 in Rain Light Rain
11:55 PM 37.4 °F 33.8 °F 33.8 °F 87% 29.94 in 5.0 mi WNW 4.6 mph - 0.06 in Rain Rain